Time,TemperatureF,DewpointF,PressureIn,WindDirection,WindDirectionDegrees,WindSpeedMPH,WindSpeedGustMPH,Humidity,HourlyPrecipIn,Conditions,Clouds,dailyrainin,SoftwareType,DateUTC
2013-12-08 00:12:00,16.0,13.0,30.56,SE,127,0.0,1.0,86,0.00,,,0.00,,2013-12-08 05:12:00,
2013-12-08 00:23:00,16.0,12.0,30.55,NE,51,0.0,1.0,85,0.00,,,0.00,,2013-12-08 05:23:00,
2013-12-08 00:43:00,16.0,12.0,30.55,East,89,0.0,1.0,84,0.00,,,0.00,,2013-12-08 05:43:00,
2013-12-08 00:53:00,16.0,12.0,30.55,North,352,0.0,1.0,84,0.00,,,0.00,,2013-12-08 05:53:00,
2013-12-08 01:12:00,16.0,12.0,30.55,ENE,66,0.0,1.0,85,0.00,,,0.00,,2013-12-08 06:12:00,
2013-12-08 01:23:00,16.0,12.0,30.55,ENE,66,0.0,1.0,84,0.00,,,0.00,,2013-12-08 06:23:00,
2013-12-08 01:42:00,17.0,13.0,30.55,ENE,64,0.0,0.0,84,0.00,,,0.00,,2013-12-08 06:42:00,
2013-12-08 01:52:00,16.0,12.0,30.55,ENE,64,0.0,0.0,84,0.00,,,0.00,,2013-12-08 06:52:00,
2013-12-08 02:12:00,17.0,13.0,30.55,ENE,64,0.0,1.0,83,0.00,,,0.00,,2013-12-08 07:12:00,
2013-12-08 02:22:00,17.0,12.0,30.55,NW,314,0.0,1.0,81,0.00,,,0.00,,2013-12-08 07:22:00,
2013-12-08 02:42:00,17.0,13.0,30.54,NW,315,0.0,0.0,83,0.00,,,0.00,,2013-12-08 07:42:00,
2013-12-08 02:53:00,17.0,13.0,30.54,NW,315,0.0,0.0,83,0.00,,,0.00,,2013-12-08 07:53:00,
2013-12-08 03:12:00,17.0,13.0,30.55,NNE,25,0.0,1.0,83,0.00,,,0.00,,2013-12-08 08:12:00,
2013-12-08 03:22:00,17.0,13.0,30.54,NNE,27,0.0,0.0,83,0.00,,,0.00,,2013-12-08 08:22:00,
2013-12-08 03:43:00,17.0,13.0,30.55,NNE,27,0.0,1.0,83,0.00,,,0.00,,2013-12-08 08:43:00,
2013-12-08 03:52:00,17.0,13.0,30.53,ESE,113,0.0,1.0,83,0.00,,,0.00,,2013-12-08 08:52:00,
2013-12-08 04:11:00,18.0,14.0,30.51,SE,140,0.0,1.0,83,0.00,,,0.00,,2013-12-08 09:11:00,
2013-12-08 04:22:00,18.0,14.0,30.50,ENE,78,0.0,2.0,83,0.00,,,0.00,,2013-12-08 09:22:00,
2013-12-08 04:43:00,18.0,13.0,30.50,North,7,0.0,2.0,81,0.00,,,0.00,,2013-12-08 09:43:00,
2013-12-08 04:53:00,18.0,13.0,30.49,North,355,0.0,1.0,82,0.00,,,0.00,,2013-12-08 09:53:00,
2013-12-08 05:12:00,18.0,13.0,30.49,ENE,70,0.0,1.0,81,0.00,,,0.00,,2013-12-08 10:12:00,
2013-12-08 05:23:00,18.0,13.0,30.48,WNW,294,0.0,1.0,82,0.00,,,0.00,,2013-12-08 10:23:00,
2013-12-08 05:43:00,18.0,14.0,30.47,NNW,335,0.0,2.0,83,0.00,,,0.00,,2013-12-08 10:43:00,
2013-12-08 05:53:00,18.0,14.0,30.47,ESE,122,0.0,1.0,83,0.00,,,0.00,,2013-12-08 10:53:00,
2013-12-08 06:12:00,18.0,13.0,30.47,SSW,206,0.0,1.0,82,0.00,,,0.00,,2013-12-08 11:12:00,
2013-12-08 06:22:00,18.0,13.0,30.48,SSW,195,0.0,0.0,82,0.00,,,0.00,,2013-12-08 11:22:00,
2013-12-08 06:43:00,18.0,13.0,30.48,NNE,26,0.0,1.0,81,0.00,,,0.00,,2013-12-08 11:43:00,
2013-12-08 06:52:00,18.0,13.0,30.49,ESE,107,0.0,1.0,81,0.00,,,0.00,,2013-12-08 11:52:00,
2013-12-08 07:12:00,18.0,13.0,30.49,East,91,0.0,1.0,81,0.00,,,0.00,,2013-12-08 12:12:00,
2013-12-08 07:22:00,18.0,13.0,30.49,NE,56,0.0,1.0,81,0.00,,,0.00,,2013-12-08 12:22:00,
2013-12-08 07:42:00,18.0,13.0,30.48,ENE,58,0.0,1.0,82,0.00,,,0.00,,2013-12-08 12:42:00,
2013-12-08 07:53:00,18.0,13.0,30.47,East,81,0.0,1.0,81,0.00,,,0.00,,2013-12-08 12:53:00,
2013-12-08 08:11:00,19.0,14.0,30.47,NNE,20,0.0,1.0,81,0.00,,,0.00,,2013-12-08 13:11:00,
2013-12-08 08:22:00,19.0,14.0,30.45,SE,146,0.0,1.0,82,0.00,,,0.00,,2013-12-08 13:22:00,
2013-12-08 08:42:00,19.0,14.0,30.42,SE,124,0.0,3.0,82,0.00,,,0.00,,2013-12-08 13:42:00,
2013-12-08 08:53:00,19.0,14.0,30.41,SSW,198,0.0,2.0,82,0.00,,,0.00,,2013-12-08 13:53:00,
2013-12-08 09:12:00,19.0,14.0,30.40,NNE,30,1.0,3.0,82,0.00,,,0.00,,2013-12-08 14:12:00,
2013-12-08 09:22:00,19.0,14.0,30.39,ENE,62,0.0,2.0,81,0.00,,,0.00,,2013-12-08 14:22:00,
2013-12-08 09:42:00,20.0,15.0,30.40,East,89,0.0,2.0,81,0.00,,,0.00,,2013-12-08 14:42:00,
2013-12-08 09:52:00,20.0,15.0,30.39,NE,39,0.0,2.0,79,0.00,,,0.00,,2013-12-08 14:52:00,
2013-12-08 10:12:00,21.0,16.0,30.40,SE,139,0.0,1.0,79,0.00,,,0.00,,2013-12-08 15:12:00,
2013-12-08 10:22:00,21.0,15.0,30.39,NNE,13,0.0,1.0,78,0.00,,,0.00,,2013-12-08 15:22:00,
2013-12-08 10:43:00,21.0,15.0,30.39,SE,136,0.0,3.0,78,0.00,,,0.00,,2013-12-08 15:43:00,
2013-12-08 10:54:00,22.0,16.0,30.37,NNE,19,0.0,3.0,79,0.00,,,0.00,,2013-12-08 15:54:00,
2013-12-08 11:13:00,23.0,17.0,30.37,SE,136,0.0,2.0,77,0.00,,,0.00,,2013-12-08 16:13:00,
2013-12-08 11:23:00,23.0,17.0,30.37,WSW,238,0.0,2.0,76,0.00,,,0.00,,2013-12-08 16:23:00,
2013-12-08 11:43:00,24.0,17.0,30.36,NE,48,0.0,3.0,75,0.00,,,0.00,,2013-12-08 16:43:00,
2013-12-08 11:53:00,24.0,17.0,30.36,NE,50,0.0,3.0,75,0.00,,,0.00,,2013-12-08 16:53:00,
2013-12-08 12:02:00,24.0,17.0,30.36,NE,50,0.0,3.0,75,0.00,,,0.00,,2013-12-08 17:02:00,
2013-12-08 12:12:00,24.0,17.0,30.36,NE,50,0.0,3.0,75,0.00,,,0.00,,2013-12-08 17:12:00,
2013-12-08 12:22:00,24.0,17.0,30.36,NE,50,0.0,3.0,75,0.00,,,0.00,,2013-12-08 17:22:00,
2013-12-08 13:52:00,26.0,17.0,30.26,North,359,0.0,2.0,69,0.00,,,0.00,,2013-12-08 18:52:00,
2013-12-08 14:12:00,26.0,17.0,30.25,West,269,0.0,2.0,69,0.00,,,0.00,,2013-12-08 19:12:00,
2013-12-08 14:22:00,26.0,18.0,30.23,ENE,63,0.0,3.0,70,0.00,,,0.00,,2013-12-08 19:22:00,
2013-12-08 14:42:00,26.0,18.0,30.22,ESE,120,0.0,3.0,71,0.00,,,0.00,,2013-12-08 19:42:00,
2013-12-08 14:52:00,26.0,19.0,30.21,West,262,0.0,1.0,74,0.00,,,0.00,,2013-12-08 19:52:00,
2013-12-08 15:11:00,26.0,19.0,30.20,NNE,16,0.0,1.0,75,0.00,,,0.00,,2013-12-08 20:11:00,
2013-12-08 15:22:00,26.0,20.0,30.19,WSW,249,0.0,1.0,78,0.00,,,0.00,,2013-12-08 20:22:00,
2013-12-08 15:42:00,26.0,20.0,30.16,SW,218,0.0,2.0,78,0.00,,,0.00,,2013-12-08 20:42:00,
2013-12-08 15:53:00,26.0,20.0,30.15,South,174,0.0,1.0,77,0.00,,,0.00,,2013-12-08 20:53:00,
2013-12-08 16:12:00,26.0,19.0,30.14,SSW,198,0.0,3.0,75,0.00,,,0.00,,2013-12-08 21:12:00,
2013-12-08 16:22:00,26.0,19.0,30.13,NE,55,0.0,2.0,74,0.00,,,0.00,,2013-12-08 21:22:00,
2013-12-08 16:53:00,26.0,19.0,30.12,NE,53,0.0,3.0,76,0.00,,,0.00,,2013-12-08 21:53:00,
2013-12-08 17:13:00,26.0,20.0,30.12,SSE,159,0.0,2.0,77,0.00,,,0.00,,2013-12-08 22:13:00,
2013-12-08 17:23:00,26.0,20.0,30.12,SSE,148,0.0,3.0,77,0.00,,,0.00,,2013-12-08 22:23:00,
2013-12-08 17:43:00,26.0,20.0,30.10,ESE,104,0.0,3.0,79,0.00,,,0.00,,2013-12-08 22:43:00,
2013-12-08 17:53:00,26.0,21.0,30.08,SE,143,0.0,2.0,82,0.00,,,0.00,,2013-12-08 22:53:00,
2013-12-08 18:12:00,25.0,21.0,30.07,South,186,0.0,2.0,84,0.00,,,0.00,,2013-12-08 23:12:00,
2013-12-08 18:22:00,25.0,21.0,30.08,ENE,70,0.0,2.0,86,0.00,,,0.00,,2013-12-08 23:22:00,
2013-12-08 18:42:00,25.0,22.0,30.09,SSE,167,0.0,2.0,87,0.00,,,0.00,,2013-12-08 23:42:00,
2013-12-08 18:53:00,25.0,22.0,30.08,South,170,0.0,3.0,87,0.00,,,0.00,,2013-12-08 23:53:00,
2013-12-08 19:12:00,25.0,22.0,30.06,East,96,0.0,2.0,88,0.00,,,0.00,,2013-12-09 00:12:00,
2013-12-08 19:22:00,25.0,22.0,30.06,SSE,165,0.0,2.0,89,0.00,,,0.00,,2013-12-09 00:22:00,
2013-12-08 19:42:00,25.0,22.0,30.06,South,172,0.0,2.0,90,0.00,,,0.00,,2013-12-09 00:42:00,
2013-12-08 19:52:00,25.0,23.0,30.05,SSW,205,0.0,2.0,92,0.00,,,0.00,,2013-12-09 00:52:00,
2013-12-08 20:11:00,25.0,23.0,30.04,SW,220,0.0,2.0,93,0.00,,,0.00,,2013-12-09 01:11:00,
2013-12-08 20:22:00,25.0,23.0,30.03,SW,220,0.0,2.0,93,0.00,,,0.00,,2013-12-09 01:22:00,
2013-12-08 20:42:00,25.0,23.0,30.02,East,82,0.0,3.0,93,0.00,,,0.00,,2013-12-09 01:42:00,
2013-12-08 20:52:00,25.0,23.0,30.01,SSW,199,0.0,3.0,92,0.00,,,0.00,,2013-12-09 01:52:00,
2013-12-08 21:11:00,25.0,23.0,30.02,South,172,0.0,1.0,91,0.00,,,0.00,,2013-12-09 02:11:00,
2013-12-08 21:22:00,25.0,23.0,30.02,SE,140,0.0,3.0,91,0.00,,,0.00,,2013-12-09 02:22:00,
2013-12-08 21:42:00,25.0,23.0,30.02,SSW,201,0.0,3.0,91,0.00,,,0.00,,2013-12-09 02:42:00,
2013-12-08 21:53:00,25.0,23.0,30.01,SSE,165,1.0,4.0,92,0.00,,,0.00,,2013-12-09 02:53:00,
2013-12-08 22:12:00,25.0,23.0,30.01,SSE,158,1.0,5.0,93,0.00,,,0.00,,2013-12-09 03:12:00,
2013-12-08 22:22:00,25.0,23.0,29.99,SSW,205,1.0,7.0,93,0.00,,,0.00,,2013-12-09 03:22:00,
2013-12-08 22:43:00,25.0,24.0,30.00,SSW,195,1.0,7.0,94,0.00,,,0.00,,2013-12-09 03:43:00,
2013-12-08 22:54:00,25.0,24.0,30.00,SW,214,2.0,5.0,94,0.00,,,0.00,,2013-12-09 03:54:00,
2013-12-08 23:13:00,25.0,24.0,29.99,South,179,2.0,5.0,94,0.00,,,0.00,,2013-12-09 04:13:00,
2013-12-08 23:23:00,25.0,24.0,29.99,South,179,2.0,5.0,94,0.00,,,0.00,,2013-12-09 04:23:00,
2013-12-08 23:43:00,26.0,25.0,29.98,South,186,1.0,2.0,94,0.00,,,0.00,,2013-12-09 04:43:00,
2013-12-08 23:53:00,26.0,25.0,29.98,South,173,0.0,1.0,94,0.00,,,0.00,,2013-12-09 04:53:00,